TimeEST,TemperatureF,Dew PointF,Humidity,Sea Level PressureIn,VisibilityMPH,Wind Direction,Wind SpeedMPH,Gust SpeedMPH,PrecipitationIn,Events,Conditions,WindDirDegrees,DateUTC
12:14 AM,3.2,-1.5,81,30.08,1.2,West,10.4,21.9,N/A,Snow,Light Snow,260,2014-01-28 05:14:00
12:35 AM,3.4,-1.3,81,30.09,1.5,West,11.5,19.6,N/A,Snow,Light Snow,270,2014-01-28 05:35:00
12:55 AM,3.2,-1.5,81,30.09,1.8,West,8.1,18.4,N/A,Snow,Light Snow,270,2014-01-28 05:55:00
1:14 AM,3.6,-1.3,80,30.09,1.8,West,11.5,19.6,N/A,Snow,Light Snow,260,2014-01-28 06:14:00
1:35 AM,3.9,-1.3,79,30.09,1.5,West,11.5,18.4,N/A,Snow,Light Snow,270,2014-01-28 06:35:00
1:55 AM,3.7,-1.5,79,30.08,1.2,West,11.5,20.7,N/A,Snow,Light Snow,270,2014-01-28 06:55:00
2:14 AM,4.1,-0.8,80,30.08,1.2,West,10.4,17.3,N/A,Snow,Light Snow,280,2014-01-28 07:14:00
2:35 AM,3.7,-1.3,80,30.08,1.5,West,11.5,19.6,N/A,Snow,Light Snow,270,2014-01-28 07:35:00
2:55 AM,3.7,-0.8,82,30.08,1.0,West,12.7,20.7,N/A,Snow,Light Snow,260,2014-01-28 07:55:00
3:15 AM,3.4,-1.5,80,30.08,1.5,West,10.4,18.4,N/A,Snow,Light Snow,260,2014-01-28 08:15:00
3:35 AM,3.6,-0.6,83,30.08,0.8,West,11.5,20.7,N/A,Snow,Light Snow,260,2014-01-28 08:35:00
3:55 AM,3.2,-0.8,84,30.08,0.5,West,12.7,18.4,N/A,Snow,Snow,260,2014-01-28 08:55:00
4:15 AM,3.0,-1.3,82,30.07,0.8,West,12.7,19.6,N/A,Snow,Snow,260,2014-01-28 09:15:00
4:35 AM,2.5,-1.7,83,30.07,0.8,West,11.5,18.4,N/A,Snow,Snow,260,2014-01-28 09:35:00
4:54 AM,2.5,-1.7,83,30.07,1.2,West,10.4,19.6,N/A,Snow,Light Snow,260,2014-01-28 09:54:00
5:15 AM,2.7,-1.5,83,30.07,0.8,WSW,11.5,17.3,N/A,Snow,Light Snow,250,2014-01-28 10:15:00
5:35 AM,2.3,-1.7,84,30.07,1.0,WSW,13.8,19.6,N/A,Snow,Light Snow,250,2014-01-28 10:35:00
5:54 AM,2.5,-1.8,82,30.07,1.2,West,9.2,17.3,N/A,Snow,Light Snow,260,2014-01-28 10:54:00
6:15 AM,2.3,-2.2,81,30.07,2.0,West,8.1,-,N/A,Snow,Light Snow,270,2014-01-28 11:15:00
6:35 AM,2.3,-2.2,81,30.07,1.5,West,9.2,16.1,N/A,Snow,Light Snow,260,2014-01-28 11:35:00
6:54 AM,2.3,-2.6,80,30.07,2.0,West,8.1,-,N/A,Snow,Light Snow,260,2014-01-28 11:54:00
7:15 AM,2.3,-2.2,81,30.07,2.5,WSW,9.2,16.1,N/A,Snow,Light Snow,250,2014-01-28 12:15:00
7:35 AM,2.3,-1.8,83,30.07,0.8,WSW,11.5,19.6,N/A,Snow,Light Snow,250,2014-01-28 12:35:00
7:54 AM,2.1,-2.4,81,30.07,4.0,West,11.5,16.1,N/A,,Haze,260,2014-01-28 12:54:00
8:15 AM,2.3,-2.7,79,30.07,5.0,West,9.2,19.6,N/A,,Haze,260,2014-01-28 13:15:00
8:35 AM,2.7,-2.6,79,30.07,1.8,West,10.4,18.4,N/A,Snow,Light Snow,260,2014-01-28 13:35:00
8:54 AM,2.8,-1.7,81,30.07,0.8,WSW,9.2,18.4,N/A,Snow,Light Snow,250,2014-01-28 13:54:00
9:15 AM,3.7,-0.6,82,30.07,1.2,WSW,12.7,21.9,N/A,Snow,Light Snow,240,2014-01-28 14:15:00
9:35 AM,4.3,0.1,83,30.08,1.0,WSW,11.5,16.1,N/A,Snow,Light Snow,250,2014-01-28 14:35:00
9:54 AM,5.5,1.6,84,30.07,0.8,WSW,11.5,21.9,N/A,Snow,Light Snow,250,2014-01-28 14:54:00
10:15 AM,5.9,1.2,81,30.08,1.0,WSW,13.8,21.9,N/A,Snow,Light Snow,250,2014-01-28 15:15:00
10:35 AM,5.9,1.6,82,30.08,1.0,WSW,11.5,19.6,N/A,Snow,Light Snow,250,2014-01-28 15:35:00
10:54 AM,6.1,2.1,84,30.08,0.5,West,10.4,16.1,N/A,Snow,Light Snow,260,2014-01-28 15:54:00
11:15 AM,6.1,1.9,83,30.07,1.2,WSW,12.7,23.0,N/A,Snow,Light Snow,250,2014-01-28 16:15:00
11:35 AM,6.6,2.5,83,30.07,0.2,WSW,13.8,19.6,N/A,Snow,Light Snow,250,2014-01-28 16:35:00
11:54 AM,7.0,3.0,84,30.07,0.2,WSW,13.8,23.0,N/A,Snow,Light Snow,240,2014-01-28 16:54:00
12:15 PM,6.4,2.1,82,30.05,0.8,WSW,16.1,25.3,N/A,Snow,Light Snow,240,2014-01-28 17:15:00
12:35 PM,6.4,2.3,83,30.04,0.5,WSW,16.1,26.5,N/A,Snow,Light Snow,250,2014-01-28 17:35:00
12:55 PM,8.4,4.6,85,30.03,0.2,WSW,13.8,23.0,N/A,Snow,Light Snow,250,2014-01-28 17:55:00
1:15 PM,8.1,4.5,85,30.02,0.2,WSW,13.8,24.2,N/A,Snow,Heavy Snow,250,2014-01-28 18:15:00
1:35 PM,8.4,4.8,85,30.01,0.2,WSW,15.0,23.0,N/A,Snow,Light Snow,240,2014-01-28 18:35:00
1:55 PM,8.4,4.8,85,30.00,0.2,WSW,15.0,24.2,N/A,Snow,Light Snow,250,2014-01-28 18:55:00
2:15 PM,8.4,4.5,84,29.99,0.8,WSW,13.8,20.7,N/A,Snow,Light Snow,240,2014-01-28 19:15:00
2:35 PM,8.4,4.6,85,29.98,0.2,WSW,16.1,24.2,N/A,Snow,Light Snow,240,2014-01-28 19:35:00
2:55 PM,8.4,4.8,85,29.97,0.5,SW,16.1,23.0,N/A,Snow,Light Snow,230,2014-01-28 19:55:00
3:15 PM,8.4,4.8,85,29.97,0.5,WSW,15.0,23.0,N/A,Snow,Light Snow,240,2014-01-28 20:15:00
3:35 PM,8.4,4.8,85,29.96,0.8,WSW,17.3,25.3,N/A,Snow,Light Snow,240,2014-01-28 20:35:00
3:55 PM,8.4,4.6,85,29.96,0.8,SW,15.0,25.3,N/A,Snow,Light Snow,230,2014-01-28 20:55:00
4:15 PM,8.2,4.6,85,29.96,0.8,SW,17.3,24.2,N/A,Snow,Light Snow,230,2014-01-28 21:15:00
4:34 PM,6.8,3.0,84,29.96,0.2,WSW,20.7,28.8,N/A,Snow,Light Snow,240,2014-01-28 21:34:00
4:55 PM,7.2,3.6,85,29.96,0.2,WSW,16.1,26.5,N/A,Snow,Light Snow,240,2014-01-28 21:55:00
5:15 PM,7.5,3.9,85,29.95,0.2,WSW,18.4,32.2,N/A,Snow,Snow,240,2014-01-28 22:15:00
5:35 PM,8.2,4.6,85,29.94,0.5,WSW,19.6,27.6,N/A,Snow,Light Snow,240,2014-01-28 22:35:00
5:55 PM,8.4,5.0,86,29.94,1.0,SW,15.0,19.6,N/A,Snow,Light Snow,230,2014-01-28 22:55:00
6:15 PM,8.4,5.0,86,29.93,1.0,SW,17.3,28.8,N/A,Snow,Light Snow,230,2014-01-28 23:15:00
6:35 PM,8.4,5.0,86,29.92,1.0,SW,17.3,24.2,N/A,Snow,Light Snow,230,2014-01-28 23:35:00
6:55 PM,8.4,5.4,87,29.92,0.8,SW,18.4,25.3,N/A,Snow,Snow,230,2014-01-28 23:55:00
7:15 PM,8.4,5.4,87,29.91,0.8,SW,16.1,23.0,N/A,Snow,Light Snow,230,2014-01-29 00:15:00
7:35 PM,8.4,5.4,87,29.91,1.0,WSW,15.0,24.2,N/A,Snow,Light Snow,240,2014-01-29 00:35:00
7:55 PM,8.4,5.0,86,29.91,1.0,WSW,16.1,25.3,N/A,Snow,Light Snow,240,2014-01-29 00:55:00
8:14 PM,8.4,5.0,86,29.90,0.8,WSW,16.1,25.3,N/A,Snow,Snow,240,2014-01-29 01:14:00
8:35 PM,8.4,5.0,86,29.89,1.0,WSW,16.1,24.2,N/A,Snow,Light Snow,240,2014-01-29 01:35:00
8:55 PM,8.4,5.4,87,29.89,1.0,SW,17.3,24.2,N/A,Snow,Light Snow,230,2014-01-29 01:55:00
9:14 PM,8.4,5.0,86,29.88,1.2,SW,17.3,25.3,N/A,Snow,Light Snow,230,2014-01-29 02:14:00
9:35 PM,8.4,5.0,86,29.88,1.5,SW,16.1,27.6,N/A,Snow,Light Snow,230,2014-01-29 02:35:00
9:55 PM,8.4,5.0,86,29.87,1.0,SW,16.1,24.2,N/A,Snow,Light Snow,230,2014-01-29 02:55:00
10:14 PM,8.4,5.5,88,29.86,0.5,SW,16.1,23.0,N/A,Snow,Snow,230,2014-01-29 03:14:00
10:35 PM,8.6,5.7,88,29.85,0.8,WSW,18.4,25.3,N/A,Snow,Snow,240,2014-01-29 03:35:00
10:55 PM,8.6,5.9,89,29.85,0.5,WSW,16.1,26.5,N/A,Snow,Snow,240,2014-01-29 03:55:00
11:14 PM,8.8,5.9,88,29.84,0.5,WSW,15.0,25.3,N/A,Snow,Heavy Snow,250,2014-01-29 04:14:00
11:35 PM,8.6,5.7,88,29.84,0.5,WSW,18.4,26.5,N/A,Snow,Heavy Snow,250,2014-01-29 04:35:00
11:55 PM,8.6,5.7,88,29.84,0.5,WSW,16.1,24.2,N/A,Snow,Heavy Snow,250,2014-01-29 04:55:00